Location: Mount Tamalpais State Park
(37.9108°N, 122.6128°W)
Time: 15:53:12
(UTC-07:00)

Cosmos 1814 Rocket - Visible Passes

Search period start: 19 April 2014 00:00
Search period end: 29 April 2014 00:00
Orbit: 746 x 789 km, 74.1° (Epoch: 19 April)

Date Brightness Start Highest point End Pass type
(mag) Time Alt. Az. Time Alt. Az. Time Alt. Az.
19 Apr 6.5 01:32:37 10° N 01:33:47 17° N 01:33:47 17° N visible
20 Apr 6.5 00:55:44 10° N 00:57:03 17° NNE 00:57:03 17° NNE visible
21 Apr 6.6 00:19:13 10° NNE 00:20:21 14° NNE 00:20:21 14° NNE visible
21 Apr 6.7 02:00:09 10° NNW 02:00:35 12° NNW 02:00:35 12° NNW visible
22 Apr 6.5 01:22:45 10° NNW 01:23:53 17° NNW 01:23:53 17° NNW visible
23 Apr 6.3 00:45:37 10° N 00:47:13 20° N 00:47:13 20° N visible
24 Apr 6.2 00:08:45 10° N 00:10:34 19° NNE 00:10:34 19° NNE visible
24 Apr 6.8 01:50:47 10° NW 01:50:48 10° NW 01:50:48 10° NW visible
24 Apr 6.3 23:32:16 10° NNE 23:33:56 15° NE 23:33:56 15° NE visible
25 Apr 6.4 01:13:05 10° NNW 01:14:10 16° NNW 01:14:10 16° NNW visible
26 Apr 6.1 00:35:43 10° NNW 00:37:33 23° NNW 00:37:33 23° NNW visible
26 Apr 5.8 23:58:36 10° N 00:00:58 26° N 00:00:58 26° N visible
27 Apr 5.8 23:21:45 10° N 23:24:23 23° NNE 23:24:23 23° NNE visible
28 Apr 6.5 01:03:41 10° NW 01:04:38 15° NW 01:04:38 15° NW visible
28 Apr 6.0 22:45:20 10° NNE 22:47:49 16° NE 22:47:49 16° NE visible
